Tracking 30918 objects as of 2-Jul-2025
HD Live streaming from Space Station
objects crossing your sky now

SHIYAN 27F

Track SHIYAN 27F now!
10-day predictions


NORAD ID: 63604
Int'l Code: 2025-078F
Perigee: 1,052.2 km
Apogee: 1,053.8 km
Inclination: 99.7 °
Period: 106.1 minutes
Semi major axis: 7424 km
RCS: Unknown
Launch date: April 18, 2025
Source: People's Republic of China (PRC)
Launch site: Taiyaun Space Center, China (TSC)
Your satellite tracking list
Your tracking list is empty




NASA's NSSDC Master Catalog

Two Line Element Set (TLE):
1 63604U 25078F   25182.95261628 -.00000006  00000-0  53278-4 0  9994
2 63604  99.6905 190.4110 0001104  93.1681 266.9583 13.57205578 10024
Source of the keplerian elements: AFSPC